Regional Weather Roundup
Issued by NWS

Home | Current Version | Previous Version | Text Only | Print | Product List | Glossary On
Versions: 1 2 3 4 5 6 7 8 9 10 11 12 13 14 15 16 17 18 19 20 21 22 23 24 25 26 27 28 29 30 31 32 33 34 35 36 37 38 39 40 41 42 43 44 45 46 47 48 49 50
000
ASUS43 KTOP 240008
RWRKS

WEATHER ROUNDUP FOR KANSAS
NATIONAL WEATHER SERVICE GOODLAND KS
700 PM CDT WED AUG 23 2017

NOTE:  "FAIR" INDICATES FEW OR NO CLOUDS BELOW 12,000 FEET WITH NO
SIGNIFICANT WEATHER AND/OR OBSTRUCTIONS TO VISIBILITY.

KSZ001>006-013>018-027>032-041>047-240100-
NORTHWEST KANSAS

CITY           SKY/WX    TMP DP  RH WIND       PRES   REMARKS
GOODLAND       SUNNY     82  62  50 S16       30.03S
6HR MIN TEMP:  77; 6HR MAX TEMP:  84;

HAYS           SUNNY     83  49  30 SE14      30.02F
HILL CITY      SUNNY     85  45  24 SE14      30.01F
6HR MIN TEMP:  81; 6HR MAX TEMP:  88;

RUSSELL        SUNNY     83  45  26 S14       30.01F
6HR MIN TEMP:  79; 6HR MAX TEMP:  87;

$$

KSZ061>065-074>080-084>089-240100-
SOUTHWEST KANSAS

CITY           SKY/WX    TMP DP  RH WIND       PRES   REMARKS
DODGE CITY     SUNNY     84  49  29 S12       30.04F
6HR MIN TEMP:  79; 6HR MAX TEMP:  87;

ELKHART          N/A     78  65  64 S9          N/A
GARDEN CITY    SUNNY     81  60  48 S14       30.04F
6HR MIN TEMP:  77; 6HR MAX TEMP:  84;

GREAT BEND     SUNNY     82  48  30 SE12      30.03F
LIBERAL        MOSUNNY   81  64  56 SE12      30.05F
PRATT          SUNNY     82  48  30 SE5       30.04S
6HR MIN TEMP:  76; 6HR MAX TEMP:  83;

$$

KSZ066>073-081>083-090>101-240100-
SOUTHEAST KANSAS

CITY           SKY/WX    TMP DP  RH WIND       PRES   REMARKS
CHANUTE        SUNNY     78  56  46 MISG      30.05F
6HR MIN TEMP:  78; 6HR MAX TEMP:  81;

COFFEYVILLE    SUNNY     78  54  43 E8        30.01F
6HR MIN TEMP:  78; 6HR MAX TEMP:  84;

HUTCHINSON     SUNNY     80  51  36 SE9       30.03F
6HR MIN TEMP:  78; 6HR MAX TEMP:  85;

MEDICINE LODGE   N/A     83  49  30 SE7       30.01F
NEWTON         SUNNY     78  53  41 E9        30.05F
PARSONS        SUNNY     78  55  44 VRB3      30.05S
6HR MIN TEMP:  77; 6HR MAX TEMP:  82;

WICHITA INTL   MOSUNNY   81  52  36 SE10      30.02F
6HR MIN TEMP:  80; 6HR MAX TEMP:  86;

WICHITA JABRA  SUNNY     78  54  43 E8        30.03F
6HR MIN TEMP:  77; 6HR MAX TEMP:  83;

WICHITA MCCONL SUNNY     81  50  33 E9        30.03F
WINFIELD       SUNNY     79  54  41 E9        30.03F
6HR MIN TEMP:  78; 6HR MAX TEMP:  83;

$$

KSZ007>012-019>026-033>040-048>060-102>105-240100-
NORTHEAST KANSAS

CITY           SKY/WX    TMP DP  RH WIND       PRES   REMARKS
CONCORDIA      SUNNY     77  56  48 E7        30.03F
6HR MIN TEMP:  77; 6HR MAX TEMP:  81;

EMPORIA        SUNNY     76  57  51 E7        30.05F
6HR MIN TEMP:  75; 6HR MAX TEMP:  79;

LAWRENCE       SUNNY     77  60  55 NE3       30.05F
6HR MIN TEMP:  76; 6HR MAX TEMP:  81;

MANHATTAN      SUNNY     77  58  51 E8        30.03F
6HR MIN TEMP:  77; 6HR MAX TEMP:  81;

MARYSVILLE     SUNNY     79  54  41 S6        30.04F
OLATHE IND     SUNNY     76  57  51 E5        30.06F
6HR MIN TEMP:  74; 6HR MAX TEMP:  80;

OLATHE EXE     SUNNY     74  57  55 E6        30.06F
6HR MIN TEMP:  74; 6HR MAX TEMP:  79;

SALINA         SUNNY     85  49  28 SE12      30.03S
6HR MIN TEMP:  82; 6HR MAX TEMP:  89;

TOPEKA BILLARD SUNNY     77  60  55 E5        30.05F
6HR MIN TEMP:  77; 6HR MAX TEMP:  80;

TOPEKA FORBES  SUNNY     77  60  55 E5        30.05F
6HR MIN TEMP:  77; 6HR MAX TEMP:  81;

$$




USA.gov is the U.S. government's official web portal to all federal, state and local government web resources and services.